datetime,pool elevation
2021-08-05,4032.31
2021-08-06,4032.34
2021-08-07,4032.34
2021-08-08,4032.31
2021-08-09,4032.33
2021-08-10,4032.31
2021-08-11,4032.31
2021-08-12,4032.34
2021-08-13,4032.33
2021-08-14,4032.36
2021-08-15,4032.38
2021-08-16,4032.36
2021-08-17,4032.39
2021-08-18,4032.43
2021-08-19,4032.44
2021-08-20,4032.47
2021-08-21,4032.6
2021-08-22,4032.64
2021-08-23,4032.7
2021-08-24,4032.77
2021-08-25,4032.8
2021-08-26,4032.88
2021-08-27,4032.92
2021-08-28,4032.99
2021-08-29,4033.04
2021-08-30,4033.06
2021-08-31,4033.11
2021-09-01,4033.16
2021-09-02,4033.22
2021-09-03,4033.27
2021-09-04,4033.33
2021-09-05,4033.4
2021-09-06,4033.47
2021-09-07,4033.54
2021-09-08,4033.62
2021-09-09,4033.68
2021-09-10,4033.83
2021-09-11,4033.9
2021-09-12,4033.93
2021-09-13,4034.0
2021-09-14,4033.97
2021-09-15,4034.0
2021-09-16,4034.02
2021-09-17,4033.99
2021-09-18,4034.01
2021-09-19,4034.03
2021-09-20,4034.03
2021-09-21,4034.03
2021-09-22,4034.0
2021-09-23,4034.0
2021-09-24,4034.0
2021-09-25,4033.98
2021-09-26,4033.97
2021-09-27,4033.89
2021-09-28,4033.95
2021-09-29,4033.95
2021-09-30,4033.93
2021-10-01,4033.92
2021-10-02,4033.92
2021-10-03,4033.92
2021-10-04,4033.92
2021-10-05,4033.88
2021-10-06,4033.88
2021-10-07,4033.86
2021-10-08,4033.85
2021-10-09,4033.86
2021-10-10,4033.75
2021-10-11,4033.78
2021-10-12,4033.81
2021-10-13,4033.78
2021-10-14,4033.81
2021-10-15,4033.8
2021-10-16,4033.77
2021-10-17,4033.75
2021-10-18,4033.77
2021-10-19,4033.8
2021-10-20,4033.8
2021-10-21,4034.02
2021-10-22,4033.84
2021-10-23,4033.97
2021-10-24,4033.88
2021-10-25,4033.88
2021-10-26,4033.87
2021-10-27,4033.86
2021-10-28,4033.84
2021-10-29,4033.83
2021-10-30,4033.85
2021-10-31,4033.82
2021-11-01,4033.85
2021-11-02,4033.82
2021-11-03,4033.9
2021-11-04,4033.8
2021-11-05,4033.83
2021-11-06,4033.82
2021-11-07,4033.81
2021-11-08,
2021-11-09,
2021-11-10,
2021-11-11,
2021-11-12,
2021-11-13,
2021-11-14,
2021-11-15,
2021-11-16,
2021-11-17,
2021-11-18,
2021-11-19,
2021-11-20,
2021-11-21,
2021-11-22,
2021-11-23,
2021-11-24,
2021-11-25,
2021-11-26,
2021-11-27,
2021-11-28,
2021-11-29,
2021-11-30,
2021-12-01,
2021-12-02,
2021-12-03,
2021-12-04,
2021-12-05,
2021-12-06,
2021-12-07,
2021-12-08,
2021-12-09,
2021-12-10,
2021-12-11,
2021-12-12,
2021-12-13,
2021-12-14,
2021-12-15,
2021-12-16,
2021-12-17,
2021-12-18,
2021-12-19,
2021-12-20,
2021-12-21,
2021-12-22,
2021-12-23,
2021-12-24,
2021-12-25,
2021-12-26,
2021-12-27,
2021-12-28,
2021-12-29,
2021-12-30,
2021-12-31,
2022-01-01,
2022-01-02,
2022-01-03,
2022-01-04,
2022-01-05,
2022-01-06,
2022-01-07,
2022-01-08,
2022-01-09,
2022-01-10,
2022-01-11,
2022-01-12,
2022-01-13,
2022-01-14,
2022-01-15,
2022-01-16,
2022-01-17,
2022-01-18,
2022-01-19,
2022-01-20,
2022-01-21,
2022-01-22,
2022-01-23,
2022-01-24,
2022-01-25,
2022-01-26,
2022-01-27,
2022-01-28,
2022-01-29,
2022-01-30,
2022-01-31,
2022-02-01,
2022-02-02,
2022-02-03,
2022-02-04,
2022-02-05,
2022-02-06,
2022-02-07,
2022-02-08,
2022-02-09,
2022-02-10,4003.46
2022-02-11,4003.45
2022-02-12,4003.45
2022-02-13,4003.44
2022-02-14,4033.34
2022-02-15,4033.37
2022-02-16,4033.4
2022-02-17,4033.41
2022-02-18,4033.41
2022-02-19,4033.31
2022-02-20,4033.17
2022-02-21,4033.28
2022-02-22,4033.33
2022-02-23,4033.35
2022-02-24,4033.36
2022-02-25,4033.36
2022-02-26,4033.35
2022-02-27,4033.34
2022-02-28,4033.33
2022-03-01,4033.3
2022-03-02,4033.33
2022-03-03,4033.27
2022-03-04,4033.18
2022-03-05,4033.2
2022-03-06,4033.23
2022-03-07,4033.11
2022-03-08,4033.11
2022-03-09,4032.99
2022-03-10,4033.01
2022-03-11,4033.02
2022-03-12,4033.04
2022-03-13,4033.04
2022-03-14,4033.25
2022-03-15,4033.25
2022-03-16,4033.26
2022-03-17,4033.26
2022-03-18,4033.27
2022-03-19,4033.18
2022-03-20,4033.18
2022-03-21,4033.18
2022-03-22,4033.19
2022-03-23,4033.19
2022-03-24,4033.19
2022-03-25,4033.2
2022-03-26,4033.2
2022-03-27,4033.2
2022-03-28,4033.13
2022-03-29,4033.09
2022-03-30,4033.04
2022-03-31,4033.03
2022-04-01,4032.99
2022-04-02,4033.04
2022-04-03,4032.98
2022-04-04,4032.91
2022-04-05,4032.98
2022-04-06,4032.98
2022-04-07,4032.96
2022-04-08,4032.87
2022-04-09,4032.86
2022-04-10,4032.88
2022-04-11,4032.79
2022-04-12,4032.85
2022-04-13,4032.78
2022-04-14,4032.87
2022-04-15,4032.89
2022-04-16,4032.88
2022-04-17,4032.9
2022-04-18,4032.88
2022-04-19,4032.91
2022-04-20,4032.85
2022-04-21,4032.85
2022-04-22,4032.84
2022-04-23,4032.86
2022-04-24,4032.84
2022-04-25,4032.8
2022-04-26,4032.8
2022-04-27,4032.76
2022-04-28,4032.8
2022-04-29,4032.77
2022-04-30,4032.71
2022-05-01,4032.8
2022-05-02,4032.62
2022-05-03,4032.72
2022-05-04,4032.7
2022-05-05,4032.72
2022-05-06,4032.66
2022-05-07,4032.64
2022-05-08,4032.65
2022-05-09,4032.64
2022-05-10,4032.64
2022-05-11,4032.61
2022-05-12,4032.59
2022-05-13,4032.59
2022-05-14,4032.59
2022-05-15,4032.54
2022-05-16,4032.48
2022-05-17,4032.51
2022-05-18,4032.47
2022-05-19,4032.43
2022-05-20,4032.42
2022-05-21,4032.37
2022-05-22,4032.35
2022-05-23,4032.3
2022-05-24,4032.35
2022-05-25,4032.35
2022-05-26,4032.34
2022-05-27,4032.27
2022-05-28,4031.99
2022-05-29,4032.17
2022-05-30,4032.26
2022-05-31,4032.22
2022-06-01,4032.19
2022-06-02,4032.2
2022-06-03,4032.18
2022-06-04,4032.21
2022-06-05,4032.15
2022-06-06,4032.15
2022-06-07,4032.11
2022-06-08,4032.1
2022-06-09,4032.09
2022-06-10,4032.07
2022-06-11,4032.01
2022-06-12,4031.92
2022-06-13,4031.98
2022-06-14,4031.99
2022-06-15,4031.91
2022-06-16,4031.88
2022-06-17,4031.79
2022-06-18,4031.83
2022-06-19,4031.82
2022-06-20,4031.86
2022-06-21,4031.85
2022-06-22,4031.76
2022-06-23,4031.75
2022-06-24,4031.75
2022-06-25,4031.77
2022-06-26,4031.71
2022-06-27,4031.63
2022-06-28,4031.54
2022-06-29,4031.54
2022-06-30,4031.5
2022-07-01,4031.46
2022-07-02,4031.42
2022-07-03,4031.39
2022-07-04,4031.48
2022-07-05,4031.46
2022-07-06,4031.37
2022-07-07,4031.34
2022-07-08,4031.32
2022-07-09,4031.27
2022-07-10,4031.29
2022-07-11,4031.33
2022-07-12,4031.23
2022-07-13,4031.19
2022-07-14,4031.21
2022-07-15,4031.19
2022-07-16,4031.15
2022-07-17,4031.07
2022-07-18,4031.08
2022-07-19,4031.04
2022-07-20,4031.03
2022-07-21,4030.98
2022-07-22,4030.93
2022-07-23,4030.9
2022-07-24,4030.89
2022-07-25,4030.87
2022-07-26,4030.82
2022-07-27,4030.81
2022-07-28,4030.78
2022-07-29,4030.75
2022-07-30,4030.72
2022-07-31,4030.7
2022-08-01,4030.66
2022-08-02,4030.65
2022-08-03,4030.63
2022-08-04,4030.6
2022-08-05,4030.58
2022-08-06,4030.56
2022-08-07,4030.54
2022-08-08,4030.49
2022-08-09,4030.46
2022-08-10,
2022-08-11,
2022-08-12,
2022-08-13,
2022-08-14,
2022-08-15,
2022-08-16,
2022-08-17,
2022-08-18,
2022-08-19,
2022-08-20,
2022-08-21,
2022-08-22,
2022-08-23,
2022-08-24,
2022-08-25,
2022-08-26,
2022-08-27,
2022-08-28,
2022-08-29,
2022-08-30,
2022-08-31,
2022-09-01,
2022-09-02,
2022-09-03,
2022-09-04,
2022-09-05,
2022-09-06,
2022-09-07,
2022-09-08,
2022-09-09,
2022-09-10,
2022-09-11,
2022-09-12,
2022-09-13,
2022-09-14,
2022-09-15,
2022-09-16,
2022-09-17,
2022-09-18,
2022-09-19,
2022-09-20,
2022-09-21,
2022-09-22,
2022-09-23,
2022-09-24,
2022-09-25,
2022-09-26,
2022-09-27,
2022-09-28,
2022-09-29,
2022-09-30,
2022-10-01,
2022-10-02,
2022-10-03,
2022-10-04,
2022-10-05,
2022-10-06,
2022-10-07,
2022-10-08,
2022-10-09,
2022-10-10,
2022-10-11,
2022-10-12,
2022-10-13,
2022-10-14,
2022-10-15,
2022-10-16,
2022-10-17,
2022-10-18,
2022-10-19,
2022-10-20,
2022-10-21,
2022-10-22,
2022-10-23,
2022-10-24,
2022-10-25,
2022-10-26,
2022-10-27,
2022-10-28,
2022-10-29,
2022-10-30,
2022-10-31,
2022-11-01,
2022-11-02,
2022-11-03,
2022-11-04,
2022-11-05,
2022-11-06,
2022-11-07,
2022-11-08,
2022-11-09,
2022-11-10,
2022-11-11,
2022-11-12,
2022-11-13,
2022-11-14,
2022-11-15,
2022-11-16,
2022-11-17,
2022-11-18,
2022-11-19,
2022-11-20,
2022-11-21,
2022-11-22,
2022-11-23,
2022-11-24,
2022-11-25,
2022-11-26,
2022-11-27,
2022-11-28,
2022-11-29,
2022-11-30,
2022-12-01,
2022-12-02,
2022-12-03,
2022-12-04,
2022-12-05,
2022-12-06,
2022-12-07,
2022-12-08,
2022-12-09,
2022-12-10,
2022-12-11,
2022-12-12,
2022-12-13,
2022-12-14,
2022-12-15,
2022-12-16,
2022-12-17,
2022-12-18,
2022-12-19,
2022-12-20,
2022-12-21,
2022-12-22,
2022-12-23,
2022-12-24,
2022-12-25,
2022-12-26,
2022-12-27,
2022-12-28,
2022-12-29,
2022-12-30,
2022-12-31,
2023-01-01,
2023-01-02,
2023-01-03,
2023-01-04,
2023-01-05,
2023-01-06,
2023-01-07,
2023-01-08,
2023-01-09,
2023-01-10,
2023-01-11,
2023-01-12,
2023-01-13,
2023-01-14,
2023-01-15,
2023-01-16,
2023-01-17,
2023-01-18,
2023-01-19,
2023-01-20,
2023-01-21,
2023-01-22,
2023-01-23,
2023-01-24,
2023-01-25,
2023-01-26,
2023-01-27,
2023-01-28,
2023-01-29,
2023-01-30,
2023-01-31,
2023-02-01,
2023-02-02,
2023-02-03,
2023-02-04,
2023-02-05,
2023-02-06,
2023-02-07,
2023-02-08,
2023-02-09,
2023-02-10,
2023-02-11,
2023-02-12,
2023-02-13,
2023-02-14,
2023-02-15,
2023-02-16,
2023-02-17,
2023-02-18,
2023-02-19,
2023-02-20,
2023-02-21,
2023-02-22,
2023-02-23,
2023-02-24,
2023-02-25,
2023-02-26,
2023-02-27,
2023-02-28,
2023-03-01,
2023-03-02,
2023-03-03,
2023-03-04,
2023-03-05,
2023-03-06,
2023-03-07,
2023-03-08,
2023-03-09,
2023-03-10,
2023-03-11,
2023-03-12,
2023-03-13,
2023-03-14,
2023-03-15,
2023-03-16,
2023-03-17,
2023-03-18,
2023-03-19,
2023-03-20,
2023-03-21,
2023-03-22,
2023-03-23,
2023-03-24,
2023-03-25,
2023-03-26,
2023-03-27,
2023-03-28,
2023-03-29,
2023-03-30,
2023-03-31,
2023-04-01,
2023-04-02,
2023-04-03,
2023-04-04,
2023-04-05,4031.32
2023-04-06,4031.53
2023-04-07,4031.39
2023-04-08,4031.47
2023-04-09,4031.51
2023-04-10,4031.41
2023-04-11,4031.53
2023-04-12,4031.61
2023-04-13,4031.71
2023-04-14,4031.83
2023-04-15,4031.97
2023-04-16,4032.01
2023-04-17,4032.11
2023-04-18,4032.25
2023-04-19,4032.29
2023-04-20,4032.4
2023-04-21,4032.48
2023-04-22,4032.51
2023-04-23,4032.52
2023-04-24,4032.58
2023-04-25,4032.63
2023-04-26,4032.31
2023-04-27,4032.33
2023-04-28,4032.33
2023-04-29,4032.32
2023-04-30,4032.24
2023-05-01,4032.27
2023-05-02,4032.23
2023-05-03,4032.3
2023-05-04,4032.26
2023-05-05,4032.32
2023-05-06,4032.32
2023-05-07,4032.35
2023-05-08,4032.31
2023-05-09,4032.27
2023-05-10,4032.23
2023-05-11,4032.24
2023-05-12,4032.22
2023-05-13,4032.27
2023-05-14,4032.2
2023-05-15,4032.11
2023-05-16,4032.1
2023-05-17,4032.08
2023-05-18,4032.02
2023-05-19,4031.99
2023-05-20,4031.96
2023-05-21,4031.91
2023-05-22,4031.91
2023-05-23,4031.89
2023-05-24,4031.89
2023-05-25,4031.94
2023-05-26,4031.84
2023-05-27,4031.87
2023-05-28,
2023-05-29,
2023-05-30,
2023-05-31,
2023-06-01,4031.96
2023-06-02,4031.98
2023-06-03,4031.95
2023-06-04,4031.98
2023-06-05,4031.99
2023-06-06,4031.94
2023-06-07,4031.99
2023-06-08,4031.99
2023-06-09,4032.07
2023-06-10,4032.15
2023-06-11,4032.15
2023-06-12,4032.11
2023-06-13,4032.06
2023-06-14,4032.09
2023-06-15,4032.16
2023-06-16,4032.14
2023-06-17,4032.04
2023-06-18,4031.97
2023-06-19,4031.98
2023-06-20,4032.15
2023-06-21,4032.17
2023-06-22,4032.14
2023-06-23,4032.14
2023-06-24,4032.16
2023-06-25,4032.13
2023-06-26,4032.16
2023-06-27,
2023-06-28,4032.11
2023-06-29,4032.11
2023-06-30,4032.08
2023-07-01,4032.08
2023-07-02,4032.07
2023-07-03,4032.04
2023-07-04,4032.06
2023-07-05,4032.04
2023-07-06,4032.01
2023-07-07,4032.01
2023-07-08,4032.01
2023-07-09,4032.0
2023-07-10,4031.99
2023-07-11,4032.0
2023-07-12,4032.0
2023-07-13,4032.0
2023-07-14,4032.0
2023-07-15,4031.99
2023-07-16,4031.98
2023-07-17,4032.0
2023-07-18,4032.03
2023-07-19,4032.04
2023-07-20,4032.06
2023-07-21,4032.08
2023-07-22,4032.1
2023-07-23,4032.11
2023-07-24,4032.11
2023-07-25,4032.13
2023-07-26,4032.13
2023-07-27,4032.14
2023-07-28,4032.14
2023-07-29,4032.12
2023-07-30,4032.12
2023-07-31,4032.14
2023-08-01,4032.17
2023-08-02,4032.14
2023-08-03,4032.16
2023-08-04,
2023-08-05,
2023-08-06,
2023-08-07,
2023-08-08,
2023-08-09,4032.37
2023-08-10,4032.39
2023-08-11,4032.43
2023-08-12,4032.46
2023-08-13,4032.5
2023-08-14,4032.52
2023-08-15,4032.5
2023-08-16,4032.53
2023-08-17,4032.55
2023-08-18,4032.55
2023-08-19,4032.58
2023-08-20,4032.59
2023-08-21,4032.71
2023-08-22,4032.7
2023-08-23,4032.76
2023-08-24,4032.8
2023-08-25,4032.84
2023-08-26,4032.91
2023-08-27,4032.99
2023-08-28,4033.06
2023-08-29,4033.1
2023-08-30,4033.16
2023-08-31,4033.19
2023-09-01,4033.29
2023-09-02,4033.33
2023-09-03,4033.28
2023-09-04,4033.33
2023-09-05,4033.36
2023-09-06,4033.4
2023-09-07,4033.41
2023-09-08,4033.46
2023-09-09,4033.47
2023-09-10,4033.47
2023-09-11,4033.47
2023-09-12,4033.49
2023-09-13,4033.53
2023-09-14,4033.54
2023-09-15,4033.56
2023-09-16,4033.56
2023-09-17,4033.57
2023-09-18,4033.57
2023-09-19,4033.58
2023-09-20,4033.57
2023-09-21,4033.67
2023-09-22,4033.71
2023-09-23,4033.68
2023-09-24,4033.8
2023-09-25,4033.92
2023-09-26,4033.86
2023-09-27,4033.85
2023-09-28,4033.88
2023-09-29,4033.88
2023-09-30,4033.87
2023-10-01,4033.9
2023-10-02,4033.95
2023-10-03,4033.95
2023-10-04,4033.95
2023-10-05,4033.95
2023-10-06,4033.95
2023-10-07,4033.96
2023-10-08,4033.96
2023-10-09,4033.9
2023-10-10,4033.79
2023-10-11,4033.89
2023-10-12,4033.93
2023-10-13,4033.87
2023-10-14,4033.87
2023-10-15,4033.91
2023-10-16,4033.84
2023-10-17,4033.83
2023-10-18,4033.8
2023-10-19,4033.78
2023-10-20,4033.76
2023-10-21,4033.72
2023-10-22,4033.63
2023-10-23,4033.61
2023-10-24,4033.59
2023-10-25,4033.51
2023-10-26,4033.52
2023-10-27,4033.48
2023-10-28,4033.46
2023-10-29,4033.43
2023-10-30,4033.4
2023-10-31,4033.37
2023-11-01,4033.35
2023-11-02,4033.33
2023-11-03,4033.31
2023-11-04,4033.28
2023-11-05,4033.32
2023-11-06,4033.25
2023-11-07,4033.21
2023-11-08,4033.2
2023-11-09,4033.18
2023-11-10,4033.17
2023-11-11,4033.14
2023-11-12,4033.14
2023-11-13,4033.1
2023-11-14,4033.08
2023-11-15,4033.07
2023-11-16,4033.05
2023-11-17,4033.07
2023-11-18,4032.99
2023-11-19,4033.04
2023-11-20,4033.04
2023-11-21,
2023-11-22,
2023-11-23,
2023-11-24,
2023-11-25,
2023-11-26,
2023-11-27,
2023-11-28,4032.85
2023-11-29,4032.83
2023-11-30,4032.81
2023-12-01,4032.81
2023-12-02,4032.83
2023-12-03,4032.83
2023-12-04,4032.82
2023-12-05,4032.81
2023-12-06,4032.8
2023-12-07,4032.76
2023-12-08,4032.79
2023-12-09,4032.78
2023-12-10,4032.78
2023-12-11,4032.77
2023-12-12,4032.76
2023-12-13,
2023-12-14,
2023-12-15,
2023-12-16,
2023-12-17,
2023-12-18,4032.85
2023-12-19,4032.76
2023-12-20,4032.74
2023-12-21,4032.72
2023-12-22,4032.71
2023-12-23,4032.71
2023-12-24,4032.7
2023-12-25,4032.71
2023-12-26,4032.86
2023-12-27,4032.77
2023-12-28,4032.74
2023-12-29,4032.71
2023-12-30,4032.73
2023-12-31,4032.74
2024-01-01,4032.77
2024-01-02,4032.8
2024-01-03,4032.81
2024-01-04,4032.83
2024-01-05,4032.85
2024-01-06,4032.7
2024-01-07,4032.87
2024-01-08,4032.88
2024-01-09,4032.9
2024-01-10,4032.92
2024-01-11,4032.95
2024-01-12,4032.97
2024-01-13,4032.99
2024-01-14,4033.01
2024-01-15,4033.03
2024-01-16,4033.07
2024-01-17,4033.06
2024-01-18,4033.08
2024-01-19,4033.16
2024-01-20,4033.21
2024-01-21,4033.26
2024-01-22,4033.2
2024-01-23,4033.24
2024-01-24,4033.28
2024-01-25,4033.34
2024-01-26,4033.37
2024-01-27,4033.39
2024-01-28,4033.4
2024-01-29,4033.42
2024-01-30,4033.49
2024-01-31,4033.47
2024-02-01,4033.47
2024-02-02,4033.49
2024-02-03,4033.53
2024-02-04,4033.78
2024-02-05,4033.67
2024-02-06,4033.63
2024-02-07,
2024-02-08,
2024-02-09,
2024-02-10,
2024-02-11,
2024-02-12,
2024-02-13,
2024-02-14,
2024-02-15,
2024-02-16,
2024-02-17,
2024-02-18,
2024-02-19,
2024-02-20,
2024-02-21,
2024-02-22,
2024-02-23,
2024-02-24,4033.76
2024-02-25,4033.75
2024-02-26,4033.64
2024-02-27,4033.77
2024-02-28,4033.72
2024-02-29,4033.73
2024-03-01,4033.77
2024-03-02,4033.79
2024-03-03,4033.76
2024-03-04,
2024-03-05,
2024-03-06,4033.75
2024-03-07,4033.76
2024-03-08,4033.79
2024-03-09,4033.78
2024-03-10,4033.75
2024-03-11,4033.77
2024-03-12,4033.74
2024-03-13,4033.81
2024-03-14,4033.88
2024-03-15,4033.95
2024-03-16,4034.02
2024-03-17,4034.1
2024-03-18,4034.16
2024-03-19,4034.22
2024-03-20,4034.24
2024-03-21,4034.28
2024-03-22,4034.3
2024-03-23,4034.26
2024-03-24,4034.29
2024-03-25,4034.32
2024-03-26,4034.37
2024-03-27,4034.46
2024-03-28,4034.53
2024-03-29,4034.59
2024-03-30,4034.63
2024-03-31,4034.73
2024-04-01,4034.77
2024-04-02,4034.89
2024-04-03,4034.88
2024-04-04,4034.93
2024-04-05,4034.99
2024-04-06,4035.04
2024-04-07,4035.04
2024-04-08,4035.05
2024-04-09,4035.05
2024-04-10,4035.05
2024-04-11,4035.07
2024-04-12,4035.08
2024-04-13,4035.01
2024-04-14,4035.16
2024-04-15,4035.16
2024-04-16,4035.16
2024-04-17,4035.19
2024-04-18,4035.19
2024-04-19,4035.18
2024-04-20,4035.17
2024-04-21,4035.19
2024-04-22,4035.18
2024-04-23,4035.18
2024-04-24,4035.13
2024-04-25,4035.13
2024-04-26,4035.11
2024-04-27,4035.13
2024-04-28,4035.1
2024-04-29,4035.08
2024-04-30,4035.01
2024-05-01,4035.07
2024-05-02,4035.06
2024-05-03,4035.09
2024-05-04,4034.94
2024-05-05,4035.03
2024-05-06,4035.02
2024-05-07,4035.02
2024-05-08,4035.04
2024-05-09,4035.03
2024-05-10,4035.01
2024-05-11,4034.99
2024-05-12,4034.96
2024-05-13,4034.98
2024-05-14,4034.98
2024-05-15,4034.96
2024-05-16,4034.9
2024-05-17,4034.91
2024-05-18,4034.87
2024-05-19,4034.88
2024-05-20,4034.92
2024-05-21,4034.83
2024-05-22,4034.85
2024-05-23,4034.88
2024-05-24,4034.86
2024-05-25,4034.85
2024-05-26,4034.86
2024-05-27,4034.82
2024-05-28,4034.75
2024-05-29,4034.8
2024-05-30,4034.81
2024-05-31,4034.78
2024-06-01,4034.72
2024-06-02,4034.75
2024-06-03,4034.73
2024-06-04,4034.73
2024-06-05,4034.73
2024-06-06,4034.7
2024-06-07,4034.66
2024-06-08,4034.67
2024-06-09,4034.63
2024-06-10,4034.62
2024-06-11,4034.59
2024-06-12,4034.57
2024-06-13,4034.53
2024-06-14,4034.48
2024-06-15,4034.45
2024-06-16,
2024-06-17,
2024-06-18,
2024-06-19,
2024-06-20,
2024-06-21,
2024-06-22,
2024-06-23,
2024-06-24,
2024-06-25,
2024-06-26,
2024-06-27,4033.93
2024-06-28,4033.91
2024-06-29,4033.81
2024-06-30,4033.83
2024-07-01,4033.79
2024-07-02,4033.78
2024-07-03,4033.79
2024-07-04,4033.78
2024-07-05,4033.75
2024-07-06,4033.73
2024-07-07,4033.7
2024-07-08,4033.67
2024-07-09,4033.63
2024-07-10,4033.6
2024-07-11,4033.58
2024-07-12,4033.55
2024-07-13,4033.53
2024-07-14,4033.52
2024-07-15,4033.49
2024-07-16,4033.47
